FW8892 Weather Reports


Display with metric or nautical units.
time (UTC)temp
F
wind
direction
speed
MPH
gust
MPH
rain 1hr
in
rain 24hr
in
rain mn
in
humidity
%
barometer
mb
20260509144029 69 292 1.0 5.0 0.00 0.00 0.00 75 1011.1
20260509143532 68 311 0.0 6.0 0.00 0.00 0.00 77 1011.1
20260509143047 68 212 2.0 7.0 0.00 0.00 0.00 75 1011.0
20260509142532 68 227 1.0 7.0 0.00 0.00 0.00 78 1011.1
20260509142031 67 216 2.0 7.0 0.00 0.00 0.00 79 1011.1
20260509141545 67 246 0.0 6.0 0.00 0.00 0.00 78 1010.9
20260509141029 66 0 2.0 6.0 0.00 0.00 0.00 77 1010.9
20260509140528 66 281 1.0 6.0 0.00 0.00 0.00 78 1010.9
20260509140048 66 317 2.0 8.0 0.00 0.00 0.00 79 1011.0
20260509135528 66 221 2.0 8.0 0.00 0.00 0.00 79 1011.0
20260509135028 65 242 2.0 7.0 0.00 0.00 0.00 79 1010.8
20260509134544 65 247 2.0 8.0 0.00 0.00 0.00 79 1010.8
20260509134028 65 0 3.0 8.0 0.00 0.00 0.00 78 1010.8
20260509133528 65 235 2.0 10.0 0.00 0.00 0.00 81 1010.7
20260509133041 64 196 2.0 10.0 0.00 0.00 0.00 80 1010.6
20260509132527 64 197 4.0 10.0 0.00 0.00 0.00 80 1010.6
20260509132028 63 270 3.0 8.0 0.00 0.00 0.00 80 1010.6
20260509131551 63 216 1.0 8.0 0.00 0.00 0.00 82 1010.7
20260509131028 63 219 4.0 8.0 0.00 0.00 0.00 83 1010.6
20260509130529 62 215 2.0 11.0 0.00 0.00 0.00 82 1010.7
20260509130059 62 213 3.0 12.0 0.00 0.00 0.00 82 1010.8
20260509125532 62 229 3.0 12.0 0.00 0.00 0.00 83 1010.7
20260509125028 62 207 3.0 9.0 0.00 0.00 0.00 83 1010.6
20260509124549 61 178 1.0 7.0 0.00 0.00 0.00 85 1010.8
20260509124028 60 233 3.0 7.0 0.00 0.00 0.00 85 1010.7
20260509123528 60 331 2.0 11.0 0.00 0.00 0.00 85 1010.7
20260509123051 59 197 4.0 11.0 0.00 0.00 0.00 85 1010.8
20260509122529 59 219 5.0 9.0 0.00 0.00 0.00 85 1010.4
20260509122029 59 227 3.0 10.0 0.00 0.00 0.00 86 1010.5
20260509121540 59 218 4.0 10.0 0.00 0.00 0.00 86 1010.3
20260509121030 58 187 4.0 11.0 0.00 0.00 0.00 86 1010.1
20260509120529 58 181 3.0 11.0 0.00 0.00 0.00 86 1010.1
20260509120056 58 198 4.0 10.0 0.00 0.00 0.00 86 1010.0
20260509115528 58 190 2.0 10.0 0.00 0.00 0.00 88 1009.9
20260509115031 57 216 3.0 10.0 0.00 0.00 0.00 87 1009.9
20260509114548 57 180 4.0 10.0 0.00 0.00 0.00 88 1009.8
20260509114029 56 169 3.0 10.0 0.00 0.00 0.00 89 1009.7
20260509113528 56 233 2.0 10.0 0.00 0.00 0.00 90 1009.5
20260509113044 55 202 2.0 7.0 0.00 0.00 0.00 90 1009.6
20260509112527 55 188 2.0 7.0 0.00 0.00 0.00 91 1009.4
20260509112028 54 150 3.0 8.0 0.00 0.00 0.00 91 1009.4
20260509111544 54 213 4.0 8.0 0.00 0.00 0.00 91 1009.4
20260509111027 54 130 3.0 8.0 0.00 0.00 0.00 91 1009.4
20260509110529 54 189 2.0 8.0 0.00 0.00 0.00 90 1009.4
20260509110044 54 223 3.0 8.0 0.00 0.00 0.00 90 1009.2
20260509105527 54 211 2.0 6.0 0.00 0.00 0.00 90 1009.3
20260509105029 54 194 2.0 8.0 0.00 0.00 0.00 90 1009.4
20260509104541 54 192 3.0 8.0 0.00 0.00 0.00 90 1009.4
20260509104028 54 217 3.0 9.0 0.00 0.00 0.00 89 1009.2
20260509103527 54 223 2.0 9.0 0.00 0.00 0.00 89 1009.2
20260509103040 54 194 2.0 7.0 0.00 0.00 0.00 89 1009.1
20260509102527 54 130 3.0 11.0 0.00 0.00 0.00 89 1009.2
20260509102028 54 204 4.0 11.0 0.00 0.00 0.00 89 1009.3
20260509101548 54 184 2.0 7.0 0.00 0.00 0.00 89 1009.2
20260509101027 54 0 2.0 7.0 0.00 0.00 0.00 89 1009.3
20260509100528 54 219 2.0 6.0 0.00 0.00 0.00 88 1009.3
20260509100045 55 164 2.0 5.0 0.00 0.00 0.00 88 1009.2
20260509095527 55 132 1.0 5.0 0.00 0.00 0.00 88 1009.3
20260509095026 55 163 2.0 7.0 0.00 0.00 0.00 87 1009.2
20260509094545 55 139 2.0 8.0 0.00 0.00 0.00 87 1009.4
20260509094027 55 199 2.0 8.0 0.00 0.00 0.00 87 1009.6
20260509093527 55 144 2.0 6.0 0.00 0.00 0.00 87 1009.6
20260509093041 55 184 2.0 6.0 0.00 0.00 0.00 87 1009.5
20260509092527 55 168 2.0 6.0 0.00 0.00 0.00 87 1009.7
20260509092029 55 165 2.0 7.0 0.00 0.00 0.00 86 1009.8
20260509091541 55 179 2.0 7.0 0.00 0.00 0.00 86 1009.8
20260509091030 56 186 2.0 7.0 0.00 0.00 0.00 86 1009.8
20260509090527 56 150 2.0 6.0 0.00 0.00 0.00 85 1009.9
20260509090049 56 138 1.0 5.0 0.00 0.00 0.00 85 1010.1
20260509085526 56 0 1.0 5.0 0.00 0.00 0.00 85 1010.2
20260509085028 56 212 0.0 5.0 0.00 0.00 0.00 85 1010.2
20260509084547 56 236 1.0 5.0 0.00 0.00 0.00 85 1010.0
20260509084026 56 181 1.0 5.0 0.00 0.00 0.00 85 1009.9
20260509083528 56 176 2.0 5.0 0.00 0.00 0.00 84 1009.9
20260509083044 56 192 1.0 5.0 0.00 0.00 0.00 84 1010.0
20260509082529 56 161 2.0 5.0 0.00 0.00 0.00 84 1010.0
20260509082027 56 171 1.0 5.0 0.00 0.00 0.00 84 1010.0
20260509081550 56 191 2.0 4.0 0.00 0.00 0.00 84 1010.2
20260509081027 56 191 1.0 5.0 0.00 0.00 0.00 84 1010.3
20260509080527 56 0 1.0 5.0 0.00 0.00 0.00 84 1010.1
20260509080042 56 189 1.0 5.0 0.00 0.00 0.00 84 1010.0
20260509075529 56 0 2.0 5.0 0.00 0.00 0.00 84 1009.9
20260509075030 56 0 0.0 4.0 0.00 0.00 0.00 84 1009.9
20260509074541 56 193 1.0 3.0 0.00 0.00 0.00 84 1009.8
20260509074026 56 176 1.0 7.0 0.00 0.00 0.00 83 1009.7
20260509073526 56 192 2.0 7.0 0.00 0.00 0.00 83 1009.8
20260509073048 56 190 1.0 4.0 0.00 0.00 0.00 83 1009.8
20260509072528 56 170 1.0 8.0 0.00 0.00 0.00 83 1009.8
20260509072030 56 223 3.0 8.0 0.00 0.00 0.00 83 1010.1
20260509071553 56 165 2.0 7.0 0.00 0.00 0.00 83 1010.1
20260509071026 56 180 2.0 6.0 0.00 0.00 0.00 83 1010.0
20260509070527 56 167 1.0 5.0 0.00 0.00 0.00 82 1009.9
20260509070043 56 196 1.0 4.0 0.00 0.00 0.00 82 1009.9
20260509065527 57 173 1.0 5.0 0.00 0.00 0.00 81 1009.7
20260509065029 57 197 1.0 5.0 0.00 0.00 0.00 81 1009.7
20260509064542 57 197 1.0 7.0 0.00 0.00 0.00 80 1009.9
20260509064029 57 183 1.0 7.0 0.00 0.00 0.00 80 1010.0
20260509063526 57 218 2.0 7.0 0.00 0.00 0.00 80 1010.0
20260509063048 57 180 2.0 6.0 0.00 0.00 0.00 80 1010.4
20260509062529 57 209 1.0 6.0 0.00 0.00 0.00 79 1010.6
20260509062029 57 230 1.0 5.0 0.00 0.00 0.00 79 1010.7
20260509061604 57 178 2.0 8.0 0.00 0.00 0.00 79 1010.5
20260509061026 57 198 3.0 8.0 0.00 0.00 0.00 79 1010.5
20260509060526 57 205 3.0 8.0 0.00 0.00 0.00 79 1010.6
20260509055529 57 178 2.0 6.0 0.00 0.00 0.00 79 1010.7
20260509055027 57 198 2.0 7.0 0.00 0.00 0.00 78 1011.0
20260509054549 57 227 2.0 7.0 0.00 0.00 0.00 78 1011.0
20260509054029 57 198 3.0 8.0 0.00 0.00 0.00 78 1011.0
20260509053529 57 225 3.0 8.0 0.00 0.00 0.00 79 1011.1
20260509053045 57 194 2.0 7.0 0.00 0.00 0.00 79 1011.0
20260509052527 56 213 3.0 7.0 0.00 0.00 0.00 78 1011.0
20260509052026 56 165 0.0 5.0 0.00 0.00 0.00 78 1011.1
20260509051539 56 188 2.0 5.0 0.00 0.00 0.00 78 1011.2
20260509051027 56 187 1.0 5.0 0.00 0.00 0.00 78 1011.2
20260509050527 56 194 1.0 7.0 0.00 0.00 0.00 78 1011.1
20260509045529 56 205 1.0 3.0 0.00 0.00 0.00 77 1010.8
20260509045029 56 0 1.0 4.0 0.00 0.00 0.00 77 1010.7
20260509044558 56 171 1.0 4.0 0.00 0.00 0.00 76 1010.9
20260509044026 56 198 1.0 4.0 0.00 0.00 0.00 76 1010.8
20260509043526 56 167 2.0 5.0 0.00 0.00 0.00 76 1010.8
20260509043041 56 194 1.0 5.0 0.00 0.00 0.00 76 1010.7
20260509042527 56 175 1.0 5.0 0.00 0.00 0.00 75 1010.6
20260509042032 56 198 1.0 5.0 0.00 0.00 0.00 75 1010.7
20260509041546 56 175 1.0 4.0 0.00 0.00 0.00 75 1010.7
20260509041027 56 179 1.0 4.0 0.00 0.00 0.00 74 1010.8
20260509040526 56 0 0.0 7.0 0.00 0.00 0.00 74 1010.8
20260509040048 56 178 1.0 7.0 0.00 0.00 0.00 74 1010.9
20260509035531 56 0 1.0 4.0 0.00 0.00 0.00 73 1011.0
20260509035028 57 169 0.0 4.0 0.00 0.00 0.00 73 1011.1
20260509034548 57 0 1.0 2.0 0.00 0.00 0.00 72 1011.0
20260509034029 57 160 1.0 3.0 0.00 0.00 0.00 72 1011.0
20260509033529 57 0 0.0 4.0 0.00 0.00 0.00 71 1010.9
20260509033046 57 0 0.0 4.0 0.00 0.00 0.00 71 1011.0
20260509032530 58 176 0.0 4.0 0.00 0.00 0.00 71 1011.0
20260509032029 58 156 1.0 4.0 0.00 0.00 0.00 71 1011.0
20260509031548 58 0 1.0 3.0 0.00 0.00 0.00 71 1011.1
20260509031029 58 180 1.0 4.0 0.00 0.00 0.00 71 1011.1
20260509030529 58 173 1.0 4.0 0.00 0.00 0.00 71 1011.1
20260509030043 58 0 1.0 4.0 0.00 0.00 0.00 71 1010.8
20260509025526 58 181 0.0 4.0 0.00 0.00 0.00 70 1010.8
20260509025028 58 178 0.0 5.0 0.00 0.00 0.00 70 1010.8
20260509024546 58 0 2.0 5.0 0.00 0.00 0.00 71 1010.9
20260509024029 57 190 1.0 5.0 0.00 0.00 0.00 71 1010.9
20260509023529 57 188 1.0 4.0 0.00 0.00 0.00 71 1010.8
20260509023058 57 170 1.0 4.0 0.00 0.00 0.00 72 1010.8
20260509022526 57 192 1.0 4.0 0.00 0.00 0.00 72 1010.9
20260509022029 57 172 1.0 4.0 0.00 0.00 0.00 72 1010.8
20260509021548 57 0 1.0 4.0 0.00 0.00 0.00 73 1010.8
20260509021029 56 157 0.0 2.0 0.00 0.00 0.00 74 1010.9
20260509020530 56 0 1.0 2.0 0.00 0.00 0.00 74 1010.9
20260509020045 56 159 1.0 2.0 0.00 0.00 0.00 74 1010.9
20260509015530 56 0 0.0 2.0 0.00 0.00 0.00 74 1010.8
20260509015030 57 0 0.0 0.0 0.00 0.00 0.00 75 1011.0
20260509014546 57 0 0.0 0.0 0.00 0.00 0.00 74 1011.0
20260509014029 58 0 0.0 0.0 0.00 0.00 0.00 73 1011.0
20260509013529 58 0 0.0 0.0 0.00 0.00 0.00 72 1011.0
20260509013100 59 0 0.0 0.0 0.00 0.00 0.00 71 1011.0
20260509012529 59 0 0.0 0.0 0.00 0.00 0.00 70 1010.8
20260509012029 60 0 0.0 0.0 0.00 0.00 0.00 69 1010.7
20260509011542 60 0 0.0 0.0 0.00 0.00 0.00 68 1010.8
20260509011029 61 0 0.0 0.0 0.00 0.00 0.00 67 1010.9
20260509010526 62 0 0.0 0.0 0.00 0.00 0.00 66 1010.9
20260509010049 63 0 0.0 0.0 0.00 0.00 0.00 65 1010.8
20260509005528 63 0 0.0 0.0 0.00 0.00 0.00 63 1010.8
20260509005029 64 0 0.0 0.0 0.00 0.00 0.00 63 1010.8
20260509004545 65 0 0.0 0.0 0.00 0.00 0.00 62 1010.8
20260509004029 65 0 0.0 0.0 0.00 0.00 0.00 60 1011.0
20260509003530 66 0 0.0 0.0 0.00 0.00 0.00 58 1011.0
20260509003057 67 0 0.0 0.0 0.00 0.00 0.00 54 1011.0
20260509002529 67 0 0.0 0.0 0.00 0.00 0.00 52 1011.1
20260509002029 67 0 0.0 3.0 0.00 0.00 0.00 51 1011.1
20260509001544 68 0 1.0 3.0 0.00 0.00 0.00 51 1011.1
20260509001029 68 192 0.0 3.0 0.00 0.00 0.00 49 1011.2
20260509000529 68 190 1.0 5.0 0.00 0.00 0.00 49 1011.2
20260509000043 69 203 2.0 6.0 0.00 0.00 0.00 48 1011.2
20260508235526 69 182 1.0 6.0 0.00 0.00 0.00 47 1011.2
20260508235029 69 142 2.0 6.0 0.00 0.00 0.00 47 1011.3
20260508234541 69 188 2.0 6.0 0.00 0.00 0.00 45 1011.2
20260508234029 70 169 2.0 7.0 0.00 0.00 0.00 45 1011.3
20260508233529 70 197 3.0 7.0 0.00 0.00 0.00 45 1011.4
20260508233047 70 227 3.0 7.0 0.00 0.00 0.00 44 1011.3
20260508232533 70 178 3.0 10.0 0.00 0.00 0.00 44 1011.3
20260508232029 70 190 2.0 10.0 0.00 0.00 0.00 43 1011.3
20260508231546 71 219 2.0 8.0 0.00 0.00 0.00 46 1011.3
20260508231030 71 172 1.0 8.0 0.00 0.00 0.00 45 1011.4
20260508230529 71 244 4.0 9.0 0.00 0.00 0.00 43 1011.4
20260508230046 71 0 3.0 9.0 0.00 0.00 0.00 43 1011.5
20260508225529 71 242 4.0 9.0 0.00 0.00 0.00 42 1011.5
20260508225026 71 209 1.0 8.0 0.00 0.00 0.00 45 1011.4
20260508224544 71 214 3.0 8.0 0.00 0.00 0.00 44 1011.5
20260508224033 71 122 3.0 9.0 0.00 0.00 0.00 44 1011.6
20260508223529 71 232 3.0 9.0 0.00 0.00 0.00 42 1011.5
20260508223041 72 241 2.0 7.0 0.00 0.00 0.00 43 1011.6
20260508222528 72 236 3.0 10.0 0.00 0.00 0.00 43 1011.6
20260508222033 72 202 5.0 10.0 0.00 0.00 0.00 42 1011.6
20260508221540 72 221 3.0 9.0 0.00 0.00 0.00 42 1011.6
20260508221029 73 217 3.0 9.0 0.00 0.00 0.00 41 1011.7
20260508220529 73 182 3.0 8.0 0.00 0.00 0.00 41 1011.7
20260508220047 73 201 3.0 9.0 0.00 0.00 0.00 40 1011.7
20260508215526 74 178 3.0 9.0 0.00 0.00 0.00 40 1011.6
20260508215030 74 186 4.0 9.0 0.00 0.00 0.00 43 1011.5
20260508214547 74 139 2.0 7.0 0.00 0.00 0.00 40 1011.7
20260508214030 74 147 3.0 7.0 0.00 0.00 0.00 41 1011.7
20260508213528 74 168 2.0 10.0 0.00 0.00 0.00 41 1011.6
20260508213043 74 146 4.0 10.0 0.00 0.00 0.00 41 1011.8
20260508212529 74 207 5.0 12.0 0.00 0.00 0.00 42 1011.8
20260508212029 74 153 4.0 12.0 0.00 0.00 0.00 41 1011.9
20260508211544 74 153 3.0 8.0 0.00 0.00 0.00 40 1011.9
20260508211029 74 190 3.0 9.0 0.00 0.00 0.00 41 1012.0
20260508210529 74 113 4.0 13.0 0.00 0.00 0.00 39 1012.1
20260508210044 74 187 3.0 13.0 0.00 0.00 0.00 43 1012.1
20260508205528 74 223 4.0 10.0 0.00 0.00 0.00 39 1012.2
20260508205031 75 202 5.0 10.0 0.00 0.00 0.00 37 1012.2
20260508204542 75 219 4.0 9.0 0.00 0.00 0.00 41 1012.4
20260508204029 75 170 3.0 9.0 0.00 0.00 0.00 41 1012.3
20260508203527 75 196 3.0 10.0 0.00 0.00 0.00 42 1012.4
20260508203047 75 252 3.0 10.0 0.00 0.00 0.00 43 1012.4
20260508202529 74 179 3.0 10.0 0.00 0.00 0.00 43 1012.4
20260508202029 75 117 3.0 10.0 0.00 0.00 0.00 42 1012.4
20260508201546 74 183 2.0 8.0 0.00 0.00 0.00 41 1012.5
20260508201029 74 139 4.0 8.0 0.00 0.00 0.00 41 1012.6
20260508200529 74 121 4.0 11.0 0.00 0.00 0.00 43 1012.7
20260508200046 74 188 4.0 11.0 0.00 0.00 0.00 40 1012.7
20260508195529 75 241 3.0 8.0 0.00 0.00 0.00 40 1012.8
20260508195029 75 128 1.0 8.0 0.00 0.00 0.00 41 1012.9
20260508194612 75 221 3.0 8.0 0.00 0.00 0.00 40 1013.0
20260508194029 75 229 4.0 8.0 0.00 0.00 0.00 43 1013.1
20260508193529 74 73 0.0 11.0 0.00 0.00 0.00 45 1013.1
20260508193049 74 171 3.0 11.0 0.00 0.00 0.00 44 1013.2
20260508192529 74 176 4.0 11.0 0.00 0.00 0.00 45 1013.4
20260508192028 73 180 3.0 11.0 0.00 0.00 0.00 43 1013.3
20260508191552 73 192 5.0 11.0 0.00 0.00 0.00 45 1013.4
20260508191030 73 186 1.0 7.0 0.00 0.00 0.00 45 1013.5
20260508190529 73 171 3.0 8.0 0.00 0.00 0.00 44 1013.6
20260508190046 72 194 2.0 8.0 0.00 0.00 0.00 44 1013.7
20260508185530 72 0 2.0 11.0 0.00 0.00 0.00 45 1013.6
20260508185028 72 89 5.0 11.0 0.00 0.00 0.00 47 1013.7
20260508184547 73 118 2.0 10.0 0.00 0.00 0.00 42 1013.7
20260508184029 72 199 3.0 10.0 0.00 0.00 0.00 50 1013.8
20260508183529 72 86 5.0 10.0 0.00 0.00 0.00 44 1013.8
20260508183046 72 111 3.0 12.0 0.00 0.00 0.00 46 1013.9
20260508182530 71 80 5.0 12.0 0.00 0.00 0.00 40 1014.2
20260508182029 72 123 4.0 12.0 0.00 0.00 0.00 42 1014.4
20260508181606 72 285 4.0 8.0 0.00 0.00 0.00 43 1014.5
20260508181031 72 140 2.0 10.0 0.00 0.00 0.00 49 1014.5
20260508180529 72 142 4.0 10.0 0.00 0.00 0.00 45 1014.7
20260508180045 71 94 2.0 8.0 0.00 0.00 0.00 45 1014.7
20260508175529 71 183 4.0 11.0 0.00 0.00 0.00 48 1014.5
20260508175030 71 207 2.0 11.0 0.00 0.00 0.00 47 1014.7
20260508174548 71 221 5.0 10.0 0.00 0.00 0.00 46 1014.7
20260508174029 70 132 4.0 11.0 0.00 0.00 0.00 45 1014.7
20260508173530 70 134 3.0 11.0 0.00 0.00 0.00 44 1014.7
20260508173047 71 96 5.0 11.0 0.00 0.00 0.00 44 1014.9
20260508172528 70 180 3.0 9.0 0.00 0.00 0.00 45 1015.1
20260508172029 70 156 4.0 9.0 0.00 0.00 0.00 45 1015.3
20260508171545 70 177 4.0 11.0 0.00 0.00 0.00 47 1015.4
20260508171027 70 196 4.0 11.0 0.00 0.00 0.00 46 1015.5
20260508170529 70 150 3.0 11.0 0.00 0.00 0.00 44 1015.6
20260508170042 70 121 4.0 12.0 0.00 0.00 0.00 47 1015.6
20260508165530 70 153 3.0 12.0 0.00 0.00 0.00 48 1015.6
20260508165029 70 85 5.0 13.0 0.00 0.00 0.00 45 1015.8
20260508164541 70 172 4.0 13.0 0.00 0.00 0.00 46 1015.8
20260508164030 70 159 2.0 9.0 0.00 0.00 0.00 48 1015.9
20260508163528 70 101 3.0 9.0 0.00 0.00 0.00 44 1016.2
20260508163048 70 138 4.0 9.0 0.00 0.00 0.00 46 1016.2
20260508162529 69 131 3.0 9.0 0.00 0.00 0.00 47 1016.2
20260508162029 69 92 3.0 10.0 0.00 0.00 0.00 45 1016.2
20260508161601 69 167 3.0 10.0 0.00 0.00 0.00 47 1016.4
20260508161029 69 180 5.0 10.0 0.00 0.00 0.00 46 1016.5
20260508160530 69 270 4.0 11.0 0.00 0.00 0.00 49 1016.5
20260508160046 69 196 5.0 11.0 0.00 0.00 0.00 44 1016.7
20260508155533 69 171 3.0 10.0 0.00 0.00 0.00 47 1016.8
20260508155026 68 173 4.0 9.0 0.00 0.00 0.00 52 1016.8
20260508154545 68 130 3.0 10.0 0.00 0.00 0.00 48 1016.9
20260508154029 67 214 4.0 10.0 0.00 0.00 0.00 51 1016.7
20260508153530 67 134 5.0 10.0 0.00 0.00 0.00 50 1016.9
20260508153046 67 121 3.0 11.0 0.00 0.00 0.00 51 1016.9
20260508152529 67 103 4.0 11.0 0.00 0.00 0.00 51 1016.9
20260508152029 67 125 2.0 10.0 0.00 0.00 0.00 51 1016.9
20260508151540 67 157 4.0 10.0 0.00 0.00 0.00 54 1016.9
20260508151029 67 146 4.0 12.0 0.00 0.00 0.00 52 1017.1
20260508150528 67 178 3.0 12.0 0.00 0.00 0.00 52 1017.0
20260508150044 66 201 4.0 9.0 0.00 0.00 0.00 52 1017.2
20260508145530 66 200 4.0 11.0 0.00 0.00 0.00 56 1017.2
20260508145029 65 173 4.0 11.0 0.00 0.00 0.00 54 1017.1
20260508144546 65 184 4.0 9.0 0.00 0.00 0.00 53 1017.1